CST,Max TemperatureF,Mean TemperatureF,Min TemperatureF,Max Dew PointF,MeanDew PointF,Min DewpointF,Max Humidity, Mean Humidity, Min Humidity, Max Sea Level PressureIn, Mean Sea Level PressureIn, Min Sea Level PressureIn, Max VisibilityMiles, Mean VisibilityMiles, Min VisibilityMiles, Max Wind SpeedMPH, Mean Wind SpeedMPH, Max Gust SpeedMPH,PrecipitationIn, CloudCover, Events, WindDirDegrees
2013-2-1,59,44,30,34,25,16,55,47,31,30.41,30.28,30.16,15,11,10,17,10,23,0.00,0,,84
2013-2-2,66,58,46,41,34,28,71,47,24,30.33,30.23,30.14,20,12,10,13,8,20,0.00,1,,256
2013-2-3,68,54,41,36,29,25,71,45,20,30.33,30.21,29.99,20,14,10,14,2,21,0.00,2,,164
2013-2-4,69,62,55,59,45,25,100,59,27,29.98,29.90,29.80,15,11,10,17,10,24,0.00,3,,148
2013-2-5,66,60,55,63,57,54,100,95,73,30.02,29.95,29.88,10,4,0,9,7,,0.00,5,Fog,84
2013-2-6,73,64,55,61,57,50,100,87,44,30.03,29.96,29.86,13,8,0,18,9,23,0.00,6,Fog,116
2013-2-7,78,66,53,61,51,41,94,70,28,30.12,29.94,29.81,20,10,2,24,13,37,0.00,6,,213
2013-2-8,62,52,42,41,33,19,71,51,19,30.26,30.16,30.12,20,12,10,15,10,22,0.00,1,,33
2013-2-9,59,52,46,59,45,34,100,80,50,30.14,29.98,29.74,10,7,2,22,11,29,0.00,5,Rain,122
2013-2-10,66,58,50,64,41,19,100,63,17,30.02,29.84,29.66,20,9,1,22,12,31,0.87,4,Rain-Thunderstorm,213
2013-2-11,53,50,46,37,30,23,66,46,33,30.15,30.08,30.01,20,12,10,16,8,23,0.00,4,,73
2013-2-12,48,44,41,45,41,36,100,85,66,30.04,29.97,29.87,13,9,4,16,8,29,0.00,7,Rain-Thunderstorm,19
2013-2-13,55,47,39,41,35,28,100,71,36,30.17,30.07,30.03,13,11,10,14,9,21,0.00,4,,269
2013-2-14,66,54,41,37,33,27,81,55,24,30.11,30.06,30.01,20,12,10,8,4,,0.00,0,,169
2013-2-15,53,45,37,36,26,16,66,46,27,30.40,30.28,30.11,20,11,10,17,9,24,0.00,4,,7
2013-2-16,53,42,32,28,25,21,70,53,28,30.42,30.31,30.18,15,12,10,12,4,,0.00,1,,182
2013-2-17,69,54,39,43,32,25,65,46,18,30.17,30.03,29.70,20,12,10,22,10,32,0.00,0,,170
2013-2-18,75,62,50,54,42,28,77,56,28,30.14,29.93,29.77,20,12,10,21,15,37,0.00,4,,220
2013-2-19,59,50,42,30,24,18,49,37,20,30.34,30.19,30.12,20,12,10,15,9,21,0.00,3,Rain,71
2013-2-20,51,46,41,37,34,28,81,68,41,30.18,30.03,29.79,15,11,10,18,10,28,0.05,8,Rain,83
2013-2-21,64,52,41,46,36,27,100,66,24,29.94,29.77,29.62,20,11,2,23,13,34,0.00,5,Rain,22
2013-2-22,46,38,30,36,26,19,87,62,40,30.16,30.05,29.93,20,12,10,15,9,20,0.00,4,,2
2013-2-23,51,42,32,28,25,21,69,52,35,30.11,30.01,29.93,15,11,10,10,5,,0.00,0,,51
2013-2-24,68,54,41,57,34,28,82,51,28,29.94,29.81,29.60,20,12,10,17,9,26,0.00,0,,115
2013-2-25,57,48,39,46,36,27,75,61,35,29.66,29.58,29.46,15,11,7,25,13,37,0.01,7,Rain,180
2013-2-26,57,48,39,32,30,27,70,55,33,29.91,29.80,29.67,15,11,10,23,15,39,0.00,4,,316
2013-2-27,55,46,37,30,26,16,75,50,22,30.23,30.05,29.89,13,11,10,17,9,29,0.00,0,,359
2013-2-28,57,46,35,28,24,18,75,51,23,30.30,30.24,30.18,20,12,10,17,9,26,0.00,0,,328